• In Uzbekistan
  • List of Countries
  • For 7 days
  • Water Temperature
  • Satellite Maps
  • Weather Map
  • Weather Widgets
  • user-avatar
    Login

    Hourly Weather Mingachevir

    Today, 26 March, Sunday

    Time Temperature Precipitation Wind Pressure Humidity
    00:00 +6°C° 0 mm 2 mps 753 mmHg 82%
    01:00 +7°C° 0 mm 1 mps 753 mmHg 85%
    02:00 +6°C° 0 mm 1 mps 753 mmHg 88%
    03:00 +6°C° 0 mm 1 mps 753 mmHg 90%
    04:00 +6°C° 0 mm 1 mps 753 mmHg 89%
    05:00 +6°C° 0 mm 1 mps 753 mmHg 87%
    06:00 +6°C° 0 mm 1 mps 753 mmHg 86%
    07:00 +7°C° 0 mm 2 mps 752 mmHg 74%
    08:00 +10°C° 0 mm 2 mps 752 mmHg 62%
    09:00 +13°C° 0 mm 2 mps 752 mmHg 51%
    10:00 +14°C° 0 mm 3 mps 751 mmHg 46%
    11:00 +16°C° 0 mm 3 mps 751 mmHg 41%
    12:00 +18°C° 0 mm 3 mps 751 mmHg 37%
    13:00 +18°C° 0 mm 3 mps 750 mmHg 36%
    14:00 +19°C° 0 mm 3 mps 750 mmHg 35%
    15:00 +19°C° 0 mm 3 mps 749 mmHg 34%
    16:00 +18°C° 0 mm 3 mps 750 mmHg 39%
    17:00 +16°C° 0 mm 2 mps 750 mmHg 44%
    18:00 +14°C° 0 mm 2 mps 750 mmHg 49%
    19:00 +14°C° 0 mm 2 mps 751 mmHg 49%
    20:00 +13°C° 0 mm 2 mps 751 mmHg 49%
    21:00 +12°C° 0 mm 2 mps 752 mmHg 49%
    22:00 +12°C° 0 mm 2 mps 752 mmHg 48%
    23:00 +11°C° 0 mm 3 mps 752 mmHg 48%

    Tomorrow, 27 March, Monday

    Time Temperature Precipitation Wind Pressure Humidity
    00:00 +10°C° 0 mm 3 mps 752 mmHg 48%
    01:00 +10°C° 0 mm 3 mps 752 mmHg 48%
    02:00 +10°C° 0 mm 3 mps 752 mmHg 48%
    03:00 +10°C° 0 mm 3 mps 752 mmHg 49%
    04:00 +10°C° 0 mm 3 mps 752 mmHg 49%
    05:00 +9°C° 0 mm 3 mps 752 mmHg 49%
    06:00 +9°C° 0 mm 3 mps 752 mmHg 50%
    07:00 +12°C° 0 mm 4 mps 751 mmHg 44%
    08:00 +14°C° 0 mm 4 mps 751 mmHg 39%
    09:00 +18°C° 0 mm 4 mps 751 mmHg 34%
    10:00 +19°C° 0 mm 4 mps 750 mmHg 32%
    11:00 +20°C° 0 mm 4 mps 749 mmHg 30%
    12:00 +22°C° 0 mm 4 mps 749 mmHg 28%
    13:00 +22°C° 0 mm 4 mps 748 mmHg 27%
    14:00 +23°C° 0 mm 4 mps 748 mmHg 27%
    15:00 +23°C° 0 mm 4 mps 747 mmHg 27%
    16:00 +21°C° 0 mm 3 mps 748 mmHg 32%
    17:00 +19°C° 0 mm 3 mps 748 mmHg 37%
    18:00 +17°C° 0 mm 2 mps 748 mmHg 42%
    19:00 +16°C° 0 mm 2 mps 749 mmHg 43%
    20:00 +15°C° 0 mm 2 mps 749 mmHg 44%
    21:00 +14°C° 0 mm 2 mps 750 mmHg 45%
    22:00 +13°C° 0 mm 3 mps 750 mmHg 47%
    23:00 +12°C° 0 mm 3 mps 750 mmHg 48%

    Day after tomorrow, 28 March, Tuesday

    Time Temperature Precipitation Wind Pressure Humidity
    00:00 +12°C° 0 mm 3 mps 750 mmHg 50%
    01:00 +12°C° 0 mm 3 mps 750 mmHg 51%
    02:00 +11°C° 0 mm 3 mps 750 mmHg 53%
    03:00 +11°C° 0 mm 3 mps 750 mmHg 55%
    04:00 +10°C° 0 mm 3 mps 750 mmHg 55%
    05:00 +10°C° 0 mm 3 mps 751 mmHg 56%
    06:00 +10°C° 0 mm 3 mps 751 mmHg 57%
    07:00 +12°C° 0 mm 3 mps 751 mmHg 53%
    08:00 +14°C° 0 mm 4 mps 752 mmHg 49%
    09:00 +15°C° 0 mm 5 mps 752 mmHg 44%
    10:00 +17°C° 0 mm 4 mps 752 mmHg 42%
    11:00 +18°C° 0 mm 4 mps 752 mmHg 40%
    12:00 +19°C° 0 mm 4 mps 752 mmHg 38%
    13:00 +19°C° 0 mm 4 mps 751 mmHg 38%
    14:00 +19°C° 0 mm 3 mps 751 mmHg 38%
    15:00 +20°C° 0 mm 3 mps 751 mmHg 37%
    16:00 +18°C° 0 mm 3 mps 751 mmHg 42%
    17:00 +17°C° 0 mm 2 mps 751 mmHg 47%
    18:00 +15°C° 0 mm 2 mps 751 mmHg 52%
    19:00 +14°C° 0 mm 2 mps 752 mmHg 56%
    20:00 +13°C° 0 mm 2 mps 753 mmHg 60%
    21:00 +12°C° 0 mm 2 mps 753 mmHg 65%
    22:00 +11°C° 0 mm 1 mps 753 mmHg 67%
    23:00 +10°C° 0 mm 1 mps 753 mmHg 69%

    29 March, Wednesday

    Time Temperature Precipitation Wind Pressure Humidity
    00:00 +10°C° 0 mm 1 mps 753 mmHg 71%
    01:00 +9°C° 0 mm 2 mps 753 mmHg 68%
    02:00 +9°C° 0 mm 3 mps 752 mmHg 65%
    03:00 +9°C° 0 mm 3 mps 752 mmHg 62%
    04:00 +8°C° 0 mm 4 mps 752 mmHg 62%
    05:00 +8°C° 0 mm 4 mps 753 mmHg 62%
    06:00 +8°C° 0 mm 4 mps 753 mmHg 61%
    07:00 +10°C° 0 mm 5 mps 753 mmHg 55%
    08:00 +13°C° 0 mm 6 mps 753 mmHg 48%
    09:00 +15°C° 0 mm 6 mps 753 mmHg 41%
    10:00 +17°C° 0 mm 6 mps 752 mmHg 39%
    11:00 +19°C° 0 mm 6 mps 752 mmHg 37%
    12:00 +20°C° 0 mm 6 mps 752 mmHg 35%
    13:00 +20°C° 0 mm 6 mps 752 mmHg 34%
    14:00 +20°C° 0 mm 5 mps 752 mmHg 34%
    15:00 +21°C° 0 mm 5 mps 752 mmHg 33%
    16:00 +19°C° 0 mm 4 mps 752 mmHg 38%
    17:00 +17°C° 0 mm 2 mps 753 mmHg 43%
    18:00 +16°C° 0 mm 1 mps 754 mmHg 47%
    19:00 +15°C° 0 mm 2 mps 755 mmHg 50%
    20:00 +13°C° 0 mm 3 mps 756 mmHg 52%
    21:00 +12°C° 0 mm 5 mps 757 mmHg 55%
    22:00 +11°C° 0 mm 4 mps 758 mmHg 59%
    23:00 +10°C° 0 mm 4 mps 758 mmHg 64%

    30 March, Thursday

    Time Temperature Precipitation Wind Pressure Humidity
    00:00 +10°C° 0 mm 4 mps 758 mmHg 69%
    01:00 +8°C° 0 mm 4 mps 759 mmHg 72%
    02:00 +8°C° 0 mm 3 mps 759 mmHg 75%
    03:00 +8°C° 0 mm 3 mps 759 mmHg 79%
    04:00 +7°C° 0 mm 3 mps 760 mmHg 79%
    05:00 +7°C° 0 mm 3 mps 760 mmHg 80%
    06:00 +7°C° 0 mm 3 mps 760 mmHg 80%
    07:00 +8°C° 0 mm 3 mps 760 mmHg 76%
    08:00 +9°C° 0 mm 3 mps 760 mmHg 72%
    09:00 +9°C° 0 mm 3 mps 759 mmHg 67%
    10:00 +10°C° 0 mm 3 mps 759 mmHg 64%
    11:00 +11°C° 0 mm 3 mps 758 mmHg 61%
    12:00 +12°C° 0 mm 3 mps 757 mmHg 58%
    13:00 +13°C° 0 mm 3 mps 756 mmHg 57%
    14:00 +13°C° 0 mm 3 mps 755 mmHg 55%
    15:00 +15°C° 0 mm 2 mps 755 mmHg 54%
    16:00 +14°C° 0 mm 2 mps 755 mmHg 59%
    17:00 +13°C° 0 mm 2 mps 754 mmHg 63%
    18:00 +12°C° 0 mm 1 mps 754 mmHg 68%
    19:00 +11°C° 0 mm 1 mps 754 mmHg 72%
    20:00 +10°C° 0 mm 1 mps 754 mmHg 76%
    21:00 +9°C° 0 mm 1 mps 754 mmHg 80%
    22:00 +9°C° 0 mm 1 mps 753 mmHg 82%
    23:00 +8°C° 0 mm 1 mps 753 mmHg 83%

    31 March, Friday

    Time Temperature Precipitation Wind Pressure Humidity
    00:00 +8°C° 0 mm 1 mps 752 mmHg 84%
    01:00 +8°C° 0 mm 1 mps 752 mmHg 83%
    02:00 +7°C° 0 mm 2 mps 751 mmHg 82%
    03:00 +7°C° 0 mm 2 mps 750 mmHg 80%
    04:00 +8°C° 0 mm 2 mps 750 mmHg 78%
    05:00 +8°C° 0 mm 2 mps 750 mmHg 76%
    06:00 +8°C° 0 mm 3 mps 749 mmHg 74%
    07:00 +11°C° 0 mm 3 mps 749 mmHg 63%
    08:00 +13°C° 0 mm 3 mps 749 mmHg 53%
    09:00 +17°C° 0 mm 3 mps 748 mmHg 42%
    10:00 +19°C° 0 mm 3 mps 748 mmHg 39%
    11:00 +20°C° 0 mm 3 mps 747 mmHg 35%
    12:00 +22°C° 0 mm 3 mps 746 mmHg 32%
    13:00 +23°C° 0.1 mm 2 mps 746 mmHg 32%
    14:00 +23°C° 0.1 mm 2 mps 746 mmHg 33%
    15:00 +23°C° 0.1 mm 1 mps 746 mmHg 33%
    16:00 +20°C° 0.1 mm 2 mps 746 mmHg 39%
    17:00 +19°C° 0.1 mm 2 mps 747 mmHg 46%
    18:00 +17°C° 0.1 mm 2 mps 747 mmHg 52%
    19:00 +16°C° 0.4 mm 2 mps 748 mmHg 57%
    20:00 +14°C° 0.4 mm 3 mps 749 mmHg 63%
    21:00 +12°C° 0.4 mm 4 mps 750 mmHg 68%
    22:00 +11°C° 1.6 mm 4 mps 750 mmHg 72%
    23:00 +10°C° 1.6 mm 4 mps 751 mmHg 77%
    Show more